[{"OBJECT_NAME":"KUIPER-00131","OBJECT_ID":"2026-072A","EPOCH":"2026-09-12T00:00:48.427200","MEAN_MOTION":14.79930632,"ECCENTRICITY":0.0000748,"INCLINATION":51.9005,"RA_OF_ASC_NODE":171.7634,"ARG_OF_PERICENTER":83.6503,"MEAN_ANOMALY":276.4544,"EPHEMERIS_TYPE":0,"CLASSIFICATION_TYPE":"U","NORAD_CAT_ID":68573,"ELEMENT_SET_NO":999,"REV_AT_EPOCH":2397,"BSTAR":0.000091733,"MEAN_MOTION_DOT":0.00000478,"MEAN_MOTION_DDOT":0},{"OBJECT_NAME":"KUIPER-00189","OBJECT_ID":"2026-072B","EPOCH":"2026-09-12T03:59:59.910432","MEAN_MOTION":14.79927803,"ECCENTRICITY":0.0000824,"INCLINATION":51.8988,"RA_OF_ASC_NODE":173.5057,"ARG_OF_PERICENTER":92.6601,"MEAN_ANOMALY":267.4456,"EPHEMERIS_TYPE":0,"CLASSIFICATION_TYPE":"U","NORAD_CAT_ID":68574,"ELEMENT_SET_NO":999,"REV_AT_EPOCH":2396,"BSTAR":0.00032302,"MEAN_MOTION_DOT":0.00002242,"MEAN_MOTION_DDOT":0},{"OBJECT_NAME":"KUIPER-00192","OBJECT_ID":"2026-072C","EPOCH":"2026-09-12T03:19:10.314048","MEAN_MOTION":14.79936187,"ECCENTRICITY":0.0001005,"INCLINATION":51.8996,"RA_OF_ASC_NODE":168.6492,"ARG_OF_PERICENTER":86.9061,"MEAN_ANOMALY":273.2016,"EPHEMERIS_TYPE":0,"CLASSIFICATION_TYPE":"U","NORAD_CAT_ID":68575,"ELEMENT_SET_NO":999,"REV_AT_EPOCH":2403,"BSTAR":0.00038056,"MEAN_MOTION_DOT":0.00002681,"MEAN_MOTION_DDOT":0},{"OBJECT_NAME":"KUIPER-00193","OBJECT_ID":"2026-072D","EPOCH":"2026-09-12T03:34:42.633120","MEAN_MOTION":14.79935334,"ECCENTRICITY":0.0001138,"INCLINATION":51.9041,"RA_OF_ASC_NODE":158.6473,"ARG_OF_PERICENTER":95.2426,"MEAN_ANOMALY":264.8667,"EPHEMERIS_TYPE":0,"CLASSIFICATION_TYPE":"U","NORAD_CAT_ID":68576,"ELEMENT_SET_NO":999,"REV_AT_EPOCH":2417,"BSTAR":0.00035464,"MEAN_MOTION_DOT":0.00002483,"MEAN_MOTION_DDOT":0},{"OBJECT_NAME":"KUIPER-00194","OBJECT_ID":"2026-072E","EPOCH":"2026-09-11T23:19:57.216864","MEAN_MOTION":14.79934563,"ECCENTRICITY":0.0001016,"INCLINATION":51.9023,"RA_OF_ASC_NODE":166.9097,"ARG_OF_PERICENTER":77.0696,"MEAN_ANOMALY":283.038,"EPHEMERIS_TYPE":0,"CLASSIFICATION_TYPE":"U","NORAD_CAT_ID":68577,"ELEMENT_SET_NO":999,"REV_AT_EPOCH":2404,"BSTAR":0.00025299,"MEAN_MOTION_DOT":0.00001708,"MEAN_MOTION_DDOT":0},{"OBJECT_NAME":"KUIPER-00229","OBJECT_ID":"2026-072F","EPOCH":"2026-09-12T04:03:55.092960","MEAN_MOTION":14.79926388,"ECCENTRICITY":0.0000749,"INCLINATION":51.9008,"RA_OF_ASC_NODE":171.0186,"ARG_OF_PERICENTER":101.4899,"MEAN_ANOMALY":258.6147,"EPHEMERIS_TYPE":0,"CLASSIFICATION_TYPE":"U","NORAD_CAT_ID":68578,"ELEMENT_SET_NO":999,"REV_AT_EPOCH":2400,"BSTAR":0.00034798,"MEAN_MOTION_DOT":0.00002432,"MEAN_MOTION_DDOT":0},{"OBJECT_NAME":"KUIPER-00230","OBJECT_ID":"2026-072G","EPOCH":"2026-09-12T04:00:01.998720","MEAN_MOTION":14.96384155,"ECCENTRICITY":0.0005336,"INCLINATION":51.8925,"RA_OF_ASC_NODE":118.6702,"ARG_OF_PERICENTER":347.6979,"MEAN_ANOMALY":310.0811,"EPHEMERIS_TYPE":0,"CLASSIFICATION_TYPE":"U","NORAD_CAT_ID":68579,"ELEMENT_SET_NO":999,"REV_AT_EPOCH":130,"BSTAR":-0.0066892,"MEAN_MOTION_DOT":-0.00076033,"MEAN_MOTION_DDOT":0},{"OBJECT_NAME":"KUIPER-00231","OBJECT_ID":"2026-072H","EPOCH":"2026-09-12T01:32:09.224160","MEAN_MOTION":14.7993345,"ECCENTRICITY":0.0002109,"INCLINATION":51.8977,"RA_OF_ASC_NODE":144.0571,"ARG_OF_PERICENTER":96.6397,"MEAN_ANOMALY":263.4805,"EPHEMERIS_TYPE":0,"CLASSIFICATION_TYPE":"U","NORAD_CAT_ID":68580,"ELEMENT_SET_NO":999,"REV_AT_EPOCH":2436,"BSTAR":0.00037274,"MEAN_MOTION_DOT":0.00002621,"MEAN_MOTION_DDOT":0},{"OBJECT_NAME":"KUIPER-00234","OBJECT_ID":"2026-072J","EPOCH":"2026-09-12T00:08:33.654912","MEAN_MOTION":14.79922084,"ECCENTRICITY":0.0001297,"INCLINATION":51.8997,"RA_OF_ASC_NODE":166.7257,"ARG_OF_PERICENTER":75.3353,"MEAN_ANOMALY":284.7753,"EPHEMERIS_TYPE":0,"CLASSIFICATION_TYPE":"U","NORAD_CAT_ID":68581,"ELEMENT_SET_NO":999,"REV_AT_EPOCH":2404,"BSTAR":-0.00007846,"MEAN_MOTION_DOT":-0.00000819,"MEAN_MOTION_DDOT":0},{"OBJECT_NAME":"KUIPER-00236","OBJECT_ID":"2026-072K","EPOCH":"2026-09-12T04:00:01.998720","MEAN_MOTION":14.84212164,"ECCENTRICITY":0.0006665,"INCLINATION":51.899,"RA_OF_ASC_NODE":120.9169,"ARG_OF_PERICENTER":305.6053,"MEAN_ANOMALY":344.5134,"EPHEMERIS_TYPE":0,"CLASSIFICATION_TYPE":"U","NORAD_CAT_ID":68582,"ELEMENT_SET_NO":999,"REV_AT_EPOCH":548,"BSTAR":-0.0038376,"MEAN_MOTION_DOT":-0.00032514,"MEAN_MOTION_DDOT":0},{"OBJECT_NAME":"KUIPER-00244","OBJECT_ID":"2026-072L","EPOCH":"2026-09-11T10:37:32.556288","MEAN_MOTION":14.79929852,"ECCENTRICITY":0.00007037,"INCLINATION":51.899,"RA_OF_ASC_NODE":159.2381,"ARG_OF_PERICENTER":82.1868,"MEAN_ANOMALY":277.9175,"EPHEMERIS_TYPE":0,"CLASSIFICATION_TYPE":"U","NORAD_CAT_ID":68583,"ELEMENT_SET_NO":999,"REV_AT_EPOCH":2410,"BSTAR":0.000082842699,"MEAN_MOTION_DOT":0.0000041,"MEAN_MOTION_DDOT":0},{"OBJECT_NAME":"KUIPER-00253","OBJECT_ID":"2026-072M","EPOCH":"2026-09-12T02:46:05.507328","MEAN_MOTION":14.79932338,"ECCENTRICITY":0.0000986,"INCLINATION":51.9037,"RA_OF_ASC_NODE":158.7893,"ARG_OF_PERICENTER":90.7094,"MEAN_ANOMALY":269.3981,"EPHEMERIS_TYPE":0,"CLASSIFICATION_TYPE":"U","NORAD_CAT_ID":68584,"ELEMENT_SET_NO":999,"REV_AT_EPOCH":2416,"BSTAR":0.0003869,"MEAN_MOTION_DOT":0.00002729,"MEAN_MOTION_DDOT":0},{"OBJECT_NAME":"KUIPER-00254","OBJECT_ID":"2026-072N","EPOCH":"2026-09-11T22:39:05.633280","MEAN_MOTION":14.79930271,"ECCENTRICITY":0.0001163,"INCLINATION":51.9033,"RA_OF_ASC_NODE":162.0451,"ARG_OF_PERICENTER":48.1071,"MEAN_ANOMALY":311.999,"EPHEMERIS_TYPE":0,"CLASSIFICATION_TYPE":"U","NORAD_CAT_ID":68585,"ELEMENT_SET_NO":999,"REV_AT_EPOCH":2410,"BSTAR":0.00019617,"MEAN_MOTION_DOT":0.00001274,"MEAN_MOTION_DDOT":0},{"OBJECT_NAME":"KUIPER-00263","OBJECT_ID":"2026-072P","EPOCH":"2026-09-12T02:16:53.361120","MEAN_MOTION":14.79926255,"ECCENTRICITY":0.0000869,"INCLINATION":51.9038,"RA_OF_ASC_NODE":146.4443,"ARG_OF_PERICENTER":99.5129,"MEAN_ANOMALY":260.5932,"EPHEMERIS_TYPE":0,"CLASSIFICATION_TYPE":"U","NORAD_CAT_ID":68586,"ELEMENT_SET_NO":999,"REV_AT_EPOCH":2433,"BSTAR":-0.0000086427,"MEAN_MOTION_DOT":-0.00000287,"MEAN_MOTION_DDOT":0},{"OBJECT_NAME":"KUIPER-00269","OBJECT_ID":"2026-072Q","EPOCH":"2026-09-11T22:58:30.453024","MEAN_MOTION":14.79926148,"ECCENTRICITY":0.0001007,"INCLINATION":51.8996,"RA_OF_ASC_NODE":149.4607,"ARG_OF_PERICENTER":97.1732,"MEAN_ANOMALY":262.9345,"EPHEMERIS_TYPE":0,"CLASSIFICATION_TYPE":"U","NORAD_CAT_ID":68587,"ELEMENT_SET_NO":999,"REV_AT_EPOCH":2428,"BSTAR":0.000045762,"MEAN_MOTION_DOT":0.00000128,"MEAN_MOTION_DDOT":0},{"OBJECT_NAME":"KUIPER-00272","OBJECT_ID":"2026-072R","EPOCH":"2026-09-12T04:07:47.265312","MEAN_MOTION":14.79928127,"ECCENTRICITY":0.0000972,"INCLINATION":51.8975,"RA_OF_ASC_NODE":168.4793,"ARG_OF_PERICENTER":87.3137,"MEAN_ANOMALY":272.7936,"EPHEMERIS_TYPE":0,"CLASSIFICATION_TYPE":"U","NORAD_CAT_ID":68588,"ELEMENT_SET_NO":999,"REV_AT_EPOCH":2403,"BSTAR":0.0003437,"MEAN_MOTION_DOT":0.000024,"MEAN_MOTION_DDOT":0},{"OBJECT_NAME":"KUIPER-00285","OBJECT_ID":"2026-072S","EPOCH":"2026-09-12T03:01:38.399232","MEAN_MOTION":14.79922836,"ECCENTRICITY":0.0001699,"INCLINATION":51.9067,"RA_OF_ASC_NODE":148.7944,"ARG_OF_PERICENTER":59.9005,"MEAN_ANOMALY":300.2126,"EPHEMERIS_TYPE":0,"CLASSIFICATION_TYPE":"U","NORAD_CAT_ID":68589,"ELEMENT_SET_NO":999,"REV_AT_EPOCH":2430,"BSTAR":0.00022717,"MEAN_MOTION_DOT":0.0000151,"MEAN_MOTION_DDOT":0},{"OBJECT_NAME":"KUIPER-00286","OBJECT_ID":"2026-072T","EPOCH":"2026-09-11T23:51:00.772416","MEAN_MOTION":14.79927805,"ECCENTRICITY":0.0000914,"INCLINATION":51.9011,"RA_OF_ASC_NODE":146.8101,"ARG_OF_PERICENTER":92.1437,"MEAN_ANOMALY":267.963,"EPHEMERIS_TYPE":0,"CLASSIFICATION_TYPE":"U","NORAD_CAT_ID":68590,"ELEMENT_SET_NO":999,"REV_AT_EPOCH":2432,"BSTAR":0.00022073,"MEAN_MOTION_DOT":0.00001462,"MEAN_MOTION_DDOT":0},{"OBJECT_NAME":"KUIPER-00289","OBJECT_ID":"2026-072U","EPOCH":"2026-09-12T02:53:50.995104","MEAN_MOTION":14.79930661,"ECCENTRICITY":0.0001081,"INCLINATION":51.8978,"RA_OF_ASC_NODE":153.7266,"ARG_OF_PERICENTER":89.4565,"MEAN_ANOMALY":270.6521,"EPHEMERIS_TYPE":0,"CLASSIFICATION_TYPE":"U","NORAD_CAT_ID":68591,"ELEMENT_SET_NO":999,"REV_AT_EPOCH":2423,"BSTAR":0.00035164,"MEAN_MOTION_DOT":0.0000246,"MEAN_MOTION_DDOT":0},{"OBJECT_NAME":"KUIPER-00290","OBJECT_ID":"2026-072V","EPOCH":"2026-09-12T03:33:23.204736","MEAN_MOTION":14.76418382,"ECCENTRICITY":0.0001559,"INCLINATION":51.9021,"RA_OF_ASC_NODE":153.5469,"ARG_OF_PERICENTER":35.8301,"MEAN_ANOMALY":324.2764,"EPHEMERIS_TYPE":0,"CLASSIFICATION_TYPE":"U","NORAD_CAT_ID":68592,"ELEMENT_SET_NO":999,"REV_AT_EPOCH":2424,"BSTAR":0.00022401,"MEAN_MOTION_DOT":0.00001357,"MEAN_MOTION_DDOT":0},{"OBJECT_NAME":"KUIPER-00293","OBJECT_ID":"2026-072W","EPOCH":"2026-09-11T23:23:49.553376","MEAN_MOTION":14.79929289,"ECCENTRICITY":0.0001778,"INCLINATION":51.8972,"RA_OF_ASC_NODE":164.3516,"ARG_OF_PERICENTER":35.2643,"MEAN_ANOMALY":324.8437,"EPHEMERIS_TYPE":0,"CLASSIFICATION_TYPE":"U","NORAD_CAT_ID":68593,"ELEMENT_SET_NO":999,"REV_AT_EPOCH":2407,"BSTAR":0.00017742,"MEAN_MOTION_DOT":0.00001131,"MEAN_MOTION_DDOT":0},{"OBJECT_NAME":"KUIPER-00294","OBJECT_ID":"2026-072X","EPOCH":"2026-09-12T02:57:44.025408","MEAN_MOTION":14.79925604,"ECCENTRICITY":0.0000764,"INCLINATION":51.8991,"RA_OF_ASC_NODE":151.2167,"ARG_OF_PERICENTER":96.2302,"MEAN_ANOMALY":263.8747,"EPHEMERIS_TYPE":0,"CLASSIFICATION_TYPE":"U","NORAD_CAT_ID":68594,"ELEMENT_SET_NO":999,"REV_AT_EPOCH":2427,"BSTAR":0.00016844,"MEAN_MOTION_DOT":0.00001063,"MEAN_MOTION_DDOT":0},{"OBJECT_NAME":"KUIPER-00296","OBJECT_ID":"2026-072Y","EPOCH":"2026-09-12T00:59:02.598720","MEAN_MOTION":14.79928089,"ECCENTRICITY":0.0000808,"INCLINATION":51.9004,"RA_OF_ASC_NODE":134.0987,"ARG_OF_PERICENTER":97.4168,"MEAN_ANOMALY":262.6886,"EPHEMERIS_TYPE":0,"CLASSIFICATION_TYPE":"U","NORAD_CAT_ID":68595,"ELEMENT_SET_NO":999,"REV_AT_EPOCH":2450,"BSTAR":0.00033994,"MEAN_MOTION_DOT":0.00002371,"MEAN_MOTION_DDOT":0}]